This demonstration page uses our WeatherBlox Daily Observations layout. Learn more.

Left ArrowRight Arrow

30.21309, -93.2044

Hourly Observations for May 25, 2022

Temp ( °F °C ) Dew Point ( °F °C ) Humidity (%) Winds ( mph kmh ) Pressure ( in mb ) Visibility ( mi km ) Precip ( " mm )
12:15 am 00:15 Clear 71 21.4 68 20.2 93 93 SE 3 6 29.83 1010 10 16 0.00 0.00
12:35 am 00:35 Clear 70 21.1 68 20 93 93 SE 6 9 29.82 1010 10 16 0.00 0.00
12:55 am 00:55 Clear 70 20.9 68 19.9 94 94 ESE 5 7 29.81 1009 10 16 0.00 0.00
1:15 am 01:15 Clear 70 21.1 68 20.1 94 94 SE 5 7 29.81 1009 10 16 0.00 0.00
1:35 am 01:35 Clear 70 20.9 68 20 95 95 ESE 6 9 29.80 1009 10 16 0.00 0.00
1:55 am 01:55 Partly Cloudy 70 21 68 20.1 95 95 SE 6 9 29.79 1009 10 16 0.00 0.00
2:15 am 02:15 Mostly Cloudy 70 21.3 69 20.4 95 95 SSE 3 6 29.79 1009 10 16 0.00 0.00
2:35 am 02:35 Mostly Cloudy 71 21.6 69 20.7 95 95 SE 6 9 29.79 1009 10 16 0.00 0.00
2:55 am 02:55 Partly Cloudy 71 21.9 70 21 95 95 SE 7 11 29.78 1008 10 16 0.00 0.00
3:15 am 03:15 Clear 71 21.9 70 20.9 94 94 SSE 5 7 29.79 1009 10 16 0.00 0.00
3:35 am 03:35 Partly Cloudy 72 22.1 70 21.1 94 94 SSE 6 9 29.79 1009 10 16 0.00 0.00
3:55 am 03:55 Mostly Cloudy 73 22.7 71 21.7 94 94 S 7 11 29.79 1009 10 16 0.00 0.00
4:15 am 04:15 Mostly Cloudy 73 22.8 71 21.6 93 93 S 7 11 29.80 1009 10 16 0.00 0.00
4:35 am 04:35 Cloudy 73 22.7 71 21.5 93 93 S 5 7 29.80 1009 10 16 0.00 0.00
4:55 am 04:55 Cloudy 73 22.7 71 21.5 93 93 S 7 11 29.80 1009 10 16 0.00 0.00
5:15 am 05:15 Cloudy 74 23.6 71 21.8 90 90 S 7 11 29.81 1009 10 16 0.00 0.00
5:35 am 05:35 Cloudy 75 23.9 72 22.1 90 90 SSW 8 13 29.81 1009 10 16 0.00 0.00
6:00 am 06:00 Mostly Cloudy 75 24 72 22 89 89 SSW 7 11 29.81 1009 10 16 0.00 0.00
6:55 am 06:55 Windy with Storms Likely 64 18 63 17 94 94 NW 20 31 29.86 1011 3 5 0.00 0.00
7:50 am 07:50 Cloudy with Thunderstorms 64 18 63 17 94 94 NW 6 9 29.85 1011 6 10 0.00 0.00
8:55 am 08:55 Mostly Cloudy 68 20 64 18 88 88 E 8 13 29.77 1008 10 16 0.00 0.00
9:47 am 09:47 Partly Cloudy 70 21 64 18 83 83 SE 15 24 29.79 1009 10 16 0.00 0.00
10:50 am 10:50 Mostly Cloudy 75 24 64 18 69 69 SSE 16 26 29.80 1009 10 16 0.00 0.00
11:47 am 11:47 Mostly Cloudy 79 26 68 20 70 70 SSW 12 19 29.82 1010 10 16 0.00 0.00
12:47 pm 12:47 Mostly Cloudy 82 28 68 20 62 62 S 15 24 29.83 1010 10 16 0.00 0.00
1:52 pm 13:52 Partly Cloudy 84 29 66 19 55 55 SSW 17 28 29.81 1009 10 16 0.00 0.00
2:50 pm 14:50 Partly Cloudy 86 30 66 19 52 52 WSW 13 20 29.80 1009 10 16 0.00 0.00
3:45 pm 15:45 Mostly Sunny 86 30 66 19 52 52 W 8 13 29.79 1009 10 16 0.00 0.00
4:47 pm 16:47 Partly Cloudy 86 30 64 18 49 49 W 10 17 29.79 1009 10 16 0.00 0.00
5:45 pm 17:45 Partly Cloudy 86 30 66 19 52 52 WSW 8 13 29.79 1009 10 16 0.00 0.00
6:45 pm 18:45 Mostly Cloudy 84 29 66 19 55 55 SSW 10 17 29.80 1009 10 16 0.00 0.00
7:52 pm 19:52 Partly Cloudy 81 27 68 20 66 66 SSW 9 15 29.83 1010 10 16 0.00 0.00
8:47 pm 20:47 Mostly Clear 79 26 68 20 70 70 S 9 15 29.84 1010 10 16 0.00 0.00
9:45 pm 21:45 Mostly Clear 77 25 70 21 79 79 SW 7 11 29.88 1012 10 16 0.00 0.00
10:15 pm 22:15 Clear 76 24.5 69 20.5 78 78 SW 6 9 29.90 1013 10 16 0.00 0.00
10:35 pm 22:35 Partly Cloudy 76 24.7 68 20 75 75 W 6 9 29.91 1013 10 16 0.00 0.00
10:55 pm 22:55 Mostly Cloudy 77 24.8 66 18.8 69 69 WNW 5 7 29.91 1013 10 16 0.00 0.00
11:15 pm 23:15 Mostly Cloudy 76 24.4 64 17.8 67 67 NW 10 17 29.92 1013 10 16 0.00 0.00
11:35 pm 23:35 Partly Cloudy 74 23.6 62 16.9 66 66 WNW 8 13 29.93 1014 10 16 0.00 0.00
11:55 pm 23:55 Partly Cloudy 74 23.3 62 16.6 66 66 NW 12 19 29.93 1014 10 16 0.00 0.00

Powered by AerisWeather